STARLINK-5258 (54195 NORAD) Tracking and Keplerian Element Data

This shows tracking and keplerian element data for the satellite.

Feedback or suggestion? Click here.




ElementValue
Catalog54195
NameSTARLINK-5258
Epoch Orbit407
Epoch Day325.25001157
Epoch Year2022
RAAN24.0901
Inclination53.2188
Eccentricity0.0002936
Argument of Perigee20.8718
Mean Anonmoly10.7938
Mean Motion15.7321123
Decay Rate0.00018644
L11 54195U 22141AQ 22325.25001157 .00018644 00000+0 13689-3 0 9991
L22 54195 53.2188 24.0901 0002936 20.8718 10.7938 15.73211230 4079



Live tracking and technical data element details for STARLINK-5258 (NORAD 54195). STARLINK-5258 can be tracked NOW for your location showing map with azimuth and elevation plus other details from your city location.







IsCatalogInMostPopularTable: catalog: 54195, numindb: 7
Update: records affected: 1



GetName: 54195 STARLINK-5258

Hit Count: updated at: Sun, 04 Dec 2022 22:54:41 GMT